HYSIS (43719 NORAD) Tracking and Keplerian Element Data

This shows tracking and keplerian element data for the satellite.

Feedback or suggestion? Click here.




ElementValue
Catalog43719
NameHYSIS
Epoch Orbit732
Epoch Day17.80823275
Epoch Year2019
RAAN87.2536
Inclination97.968
Eccentricity0.0016671
Argument of Perigee80.7016
Mean Anonmoly279.6063
Mean Motion14.77256583
Decay Rate1E-08
L11 43719U 18096A 19017.80823275 .00000001 00000-0 74311-5 0 9993
L22 43719 97.9680 87.2536 0016671 80.7016 279.6063 14.77256583 7322

Live tracking and technical data element details for HYSIS (NORAD 43719). HYSIS can be tracked NOW for your location showing map with azimuth and elevation plus other details from your city location.

Track the satellite on the map from your city or location and see movement details for azimuth, elevation, latitude, longitude, range, height, and movement on the map or in text.







IsCatalogInMostPopularTable: catalog: 43719, numindb: 23
Update: records affected: 1



GetName: 43719 HYSIS

Hit Count: updated at: Fri, 18 Jan 2019 21:53:00 GMT